Regional Weather Roundup
Issued by NWS

Home | Current Version | Previous Version | Graphics & Text | Print | Product List | Glossary On
Versions: 1 2 3 4 5 6 7 8 9 10 11 12 13 14 15 16 17 18 19 20 21 22 23 24 25 26 27 28 29 30 31 32 33 34 35 36 37 38 39 40 41 42 43 44 45 46 47 48 49 50
385
ASUS43 KIND 270359
RWRIN

WEATHER ROUNDUP FOR INDIANA
NATIONAL WEATHER SERVICE INDIANAPOLIS IN
1200 AM EDT FRI APR 27 2018

NOTE: "FAIR" INDICATES FEW OR NO CLOUDS BELOW 12,000 FEET WITH NO
SIGNIFICANT WEATHER AND/OR OBSTRUCTIONS TO VISIBILITY.

* - STATION DOES NOT REPORT WEATHER SUCH AS PRECIPITATION OR FOG.

+ - STATION NOT QUALITY CONTROLLED BY THE NATIONAL WEATHER SERVICE.
    USE DATA WITH CAUTION...ESPECIALLY DEWPOINT AND RELATIVE
    HUMIDITY OBSERVATIONS.

INZ001>003-010>013-019-020-270500-
NORTHWEST INDIANA

CITY           SKY/WX    TMP DP  RH WIND       PRES   REMARKS
KNOX *+        FAIR      41  32  70 SE3       29.84F
MONTICELLO +   FAIR      50  32  50 CALM      29.85F

$$

LMZ046-743>745-270500-
SOUTHERN LAKE MICHIGAN

STATION/POSITION TIME  TEMP    WIND        PRES    WAVE
                       AIR SEA DIR/SP/G            HT
                 (UTC) (F)     (DEG/KT/KT) (MB)    (FT)
BURNS HARBOR     0340   55     160/  8/ 12 1010.8F
MICHIGAN CITY    0330   54     130/  9/ 10   N/A

$$

INZ004-005-014>016-021>024-270500-
NORTH CENTRAL INDIANA

CITY           SKY/WX    TMP DP  RH WIND       PRES   REMARKS
GOSHEN         FAIR      45  35  68 S5        29.84F
ROCHESTER +    FAIR      48  36  61 CALM      29.86F
SOUTH BEND     FAIR      46  24  42 CALM      29.84F
WARSAW +       FAIR      45  37  76 CALM      29.85F

$$

INZ006>009-017-018-025>027-270500-
NORTHEAST INDIANA

CITY           SKY/WX    TMP DP  RH WIND       PRES   REMARKS
ANGOLA *+      MOCLDY    46  36  66 CALM      29.84F
FORT WAYNE     CLOUDY    50  39  66 N6        29.85F
KENDALLVILLE + FAIR      49  31  48 CALM      29.85F

$$

INZ028-029-035-036-043>045-051>053-270500-
WEST CENTRAL INDIANA

CITY           SKY/WX    TMP DP  RH WIND       PRES   REMARKS
GREENCASTLE +  FAIR      46  34  61 CALM      29.87S
LAFAYETTE      FAIR      51  33  50 CALM      29.85F
TERRE HAUTE    FAIR      49  37  63 CALM      29.87S

$$

INZ030>032-037>040-046>048-054>057-064-065-270500-
CENTRAL INDIANA

CITY           SKY/WX    TMP DP  RH WIND       PRES   REMARKS
GREENWOOD *+   FAIR      49  37  63 CALM      29.86S
INDIANAPOLIS   MOCLDY    52  34  50 NW3       29.85F
-EAGLE CREEK   FAIR      51  41  68 NW3       29.85S
KOKOMO +       FAIR      50  37  61 N5        29.86F
MT COMFORT *+  FAIR      46  45  93 CALM      29.85F
SHELBYVILLE    FAIR      48  40  73 NW3       29.84F
ZIONSVILLE +   FAIR      45  39  78 CALM      29.86F

$$

INZ033-034-041-042-049-050-058-059-270500-
EAST CENTRAL INDIANA

CITY           SKY/WX    TMP DP  RH WIND       PRES   REMARKS
MUNCIE         FAIR      50  39  66 CALM      29.84F
RICHMOND +     FAIR      46  37  71 CALM      29.85F

$$

INZ060-061-067>069-081>083-085>088-270500-
SOUTHWEST INDIANA

CITY           SKY/WX    TMP DP  RH WIND       PRES   REMARKS
EVANSVILLE     FAIR      49  43  80 SW3       29.88F
HUNTINGBURG +  FAIR      52  33  48 CALM      29.87F

$$

INZ062-063-066-070>080-084-089>092-270500-
SOUTH CENTRAL AND SOUTHEAST INDIANA

CITY           SKY/WX    TMP DP  RH WIND       PRES   REMARKS
BLOOMINGTON    FAIR      45  39  79 CALM      29.86S
FRENCH LICK *+ FAIR      55  19  24 NW3       29.87F
MADISON *+     FAIR      50  36  57 CALM      29.86F
SEYMOUR +      FAIR      50  37  62 CALM      29.85F

$$





USA.gov is the U.S. government's official web portal to all federal, state and local government web resources and services.